�������l�o���
Date,Time,MP-1(��Sv/h),MP-2(��Sv/h),MP-3(��Sv/h),MP-4(��Sv/h),MP-5(��Sv/h),MP-6(��Sv/h),MP-7(��Sv/h),MP-8(��Sv/h),����,����(m/s),���J
2018/03/27,00:00,0.856,1.430,0.891,1.670,1.129,0.483,0.847,0.814,���쓌,1.4,��
2018/03/27,00:10,0.858,1.432,0.891,1.668,1.132,0.484,0.848,0.813,�쓌,1.1,��
2018/03/27,00:20,0.857,1.426,0.891,1.669,1.132,0.484,0.850,0.815,��,0.6,��
2018/03/27,00:30,0.857,1.429,0.893,1.669,1.130,0.484,0.849,0.814,�쐼,0.9,��
2018/03/27,00:40,0.857,1.428,0.890,1.669,1.131,0.483,0.847,0.814,�쐼,0.9,��
2018/03/27,00:50,0.856,1.430,0.890,1.668,1.129,0.485,0.847,0.813,��,0.6,��
2018/03/27,01:00,0.855,1.427,0.890,1.667,1.129,0.483,0.848,0.814,��쓌,0.6,��
2018/03/27,01:10,0.855,1.433,0.892,1.668,1.133,0.482,0.847,0.813,�쓌,0.6,��
2018/03/27,01:20,0.856,1.431,0.891,1.670,1.131,0.484,0.847,0.813,��,0.8,��
2018/03/27,01:30,0.856,1.426,0.890,1.670,1.131,0.482,0.848,0.813,���쓌,0.8,��
2018/03/27,01:40,0.856,1.428,0.890,1.669,1.130,0.484,0.846,0.814,-,CALM,��
2018/03/27,01:50,0.857,1.429,0.890,1.668,1.131,0.483,0.848,0.813,-,CALM,��
2018/03/27,02:00,0.853,1.429,0.889,1.668,1.131,0.481,0.847,0.813,�k�k��,1.2,��
2018/03/27,02:10,0.854,1.427,0.891,1.668,1.131,0.482,0.847,0.813,�k,0.9,��
2018/03/27,02:20,0.853,1.427,0.889,1.668,1.130,0.483,0.846,0.815,�k,1.5,��
2018/03/27,02:30,0.853,1.429,0.888,1.666,1.130,0.483,0.846,0.815,�k��,2.5,��
2018/03/27,02:40,0.852,1.428,0.889,1.670,1.132,0.482,0.847,0.813,�k��,3.4,��
2018/03/27,02:50,0.854,1.428,0.891,1.669,1.131,0.483,0.848,0.815,�k�k��,3.9,��
2018/03/27,03:00,0.855,1.428,0.889,1.670,1.131,0.482,0.847,0.813,�k�k��,4.7,��
2018/03/27,03:10,0.854,1.430,0.889,1.670,1.130,0.482,0.849,0.813,�k�k��,4.5,��
2018/03/27,03:20,0.854,1.429,0.891,1.668,1.129,0.482,0.847,0.814,�k�k��,4.4,��
2018/03/27,03:30,0.852,1.428,0.889,1.671,1.128,0.483,0.845,0.814,�k�k��,4.3,��
2018/03/27,03:40,0.854,1.429,0.890,1.669,1.128,0.482,0.847,0.814,�k�k��,4.2,��
2018/03/27,03:50,0.853,1.427,0.891,1.670,1.130,0.482,0.847,0.813,�k�k��,5.0,��
2018/03/27,04:00,0.855,1.426,0.891,1.669,1.129,0.482,0.848,0.814,�k�k��,4.8,��
2018/03/27,04:10,0.853,1.429,0.888,1.667,1.129,0.482,0.849,0.813,�k�k��,5.0,��
2018/03/27,04:20,0.856,1.429,0.891,1.667,1.130,0.483,0.846,0.813,�k�k��,4.5,��
2018/03/27,04:30,0.853,1.427,0.888,1.668,1.131,0.481,0.846,0.815,�k�k��,4.6,��
2018/03/27,04:40,0.853,1.429,0.892,1.669,1.130,0.482,0.846,0.814,�k�k��,4.3,��
2018/03/27,04:50,0.855,1.427,0.889,1.665,1.131,0.482,0.848,0.813,�k��,4.3,��
2018/03/27,05:00,0.853,1.428,0.890,1.665,1.131,0.483,0.847,0.815,�k��,4.1,��
2018/03/27,05:10,0.855,1.429,0.889,1.668,1.130,0.482,0.847,0.813,�k��,4.1,��
2018/03/27,05:20,0.853,1.429,0.889,1.668,1.131,0.481,0.845,0.813,�k��,3.4,��
2018/03/27,05:30,0.851,1.428,0.890,1.667,1.130,0.481,0.847,0.813,�k�k��,3.1,��
2018/03/27,05:40,0.853,1.426,0.890,1.670,1.130,0.483,0.845,0.814,�k�k��,3.5,��
2018/03/27,05:50,0.851,1.429,0.890,1.669,1.131,0.481,0.847,0.813,�k�k��,3.7,��
2018/03/27,06:00,0.852,1.427,0.888,1.668,1.128,0.481,0.847,0.813,�k�k��,3.7,��
2018/03/27,06:10,0.854,1.428,0.888,1.665,1.130,0.482,0.846,0.813,�k�k��,3.5,��
2018/03/27,06:20,0.853,1.427,0.891,1.668,1.130,0.482,0.847,0.814,�k�k��,4.2,��
2018/03/27,06:30,0.854,1.431,0.891,1.671,1.128,0.482,0.846,0.815,�k�k��,3.9,��
2018/03/27,06:40,0.854,1.428,0.890,1.668,1.131,0.482,0.847,0.814,�k�k��,3.8,��
2018/03/27,06:50,0.855,1.429,0.891,1.670,1.130,0.482,0.847,0.812,�k,4.0,��
2018/03/27,07:00,0.853,1.432,0.893,1.668,1.132,0.483,0.847,0.813,�k�k��,3.9,��
2018/03/27,07:10,0.855,1.431,0.889,1.671,1.133,0.483,0.848,0.814,�k,3.5,��
2018/03/27,07:20,0.852,1.429,0.890,1.671,1.131,0.483,0.848,0.815,�k�k��,3.8,��
2018/03/27,07:30,0.853,1.431,0.889,1.672,1.131,0.483,0.848,0.816,�k�k��,3.3,��
2018/03/27,07:40,0.855,1.429,0.890,1.670,1.132,0.483,0.849,0.815,�k,3.7,��
2018/03/27,07:50,0.856,1.431,0.889,1.670,1.132,0.483,0.849,0.815,�k�k��,2.9,��
2018/03/27,08:00,0.856,1.430,0.892,1.670,1.130,0.481,0.848,0.816,�k�k��,2.3,��
2018/03/27,08:10,0.855,1.429,0.892,1.671,1.129,0.483,0.850,0.814,�k,2.2,��
2018/03/27,08:20,0.857,1.431,0.891,1.672,1.133,0.482,0.849,0.816,�k,2.2,��
2018/03/27,08:30,0.857,1.427,0.893,1.670,1.134,0.481,0.850,0.818,�k�k��,2.2,��
2018/03/27,08:40,0.856,1.427,0.892,1.671,1.135,0.482,0.849,0.816,�k,2.5,��
2018/03/27,08:50,0.855,1.425,0.892,1.668,1.133,0.482,0.850,0.816,�k,2.5,��
2018/03/27,09:00,0.857,1.425,0.890,1.674,1.133,0.480,0.846,0.814,�k,3.2,��
2018/03/27,09:10,0.857,1.426,0.893,1.674,1.134,0.482,0.849,0.813,�k�k��,2.6,��
2018/03/27,09:20,0.853,1.427,0.894,1.676,1.132,0.480,0.848,0.813,�k�k��,2.3,��
2018/03/27,09:30,0.859,1.426,0.891,1.674,1.133,0.482,0.846,0.814,�k�k��,2.6,��
2018/03/27,09:40,0.854,1.428,0.892,1.673,1.133,0.482,0.848,0.812,�k��,2.3,��
2018/03/27,09:50,0.853,1.428,0.891,1.674,1.132,0.481,0.847,0.811,�k��,3.0,��
2018/03/27,10:00,0.855,1.428,0.892,1.675,1.132,0.480,0.849,0.811,�k��,2.6,��
2018/03/27,10:10,0.857,1.428,0.891,1.673,1.134,0.480,0.847,0.811,�k��,3.0,��
2018/03/27,10:20,0.855,1.428,0.890,1.672,1.130,0.481,0.848,0.814,�k��,2.6,��
2018/03/27,10:30,0.857,1.432,0.891,1.672,1.132,0.481,0.848,0.812,���k��,2.2,��
2018/03/27,10:40,0.857,1.431,0.891,1.674,1.129,0.481,0.847,0.812,���k��,2.9,��
2018/03/27,10:50,0.856,1.430,0.890,1.672,1.132,0.480,0.848,0.812,���k��,2.2,��
2018/03/27,11:00,0.855,1.430,0.892,1.673,1.132,0.482,0.847,0.813,�k��,3.2,��
2018/03/27,11:10,0.855,1.430,0.892,1.675,1.129,0.483,0.848,0.812,���k��,2.6,��
2018/03/27,11:20,0.860,1.431,0.890,1.675,1.133,0.481,0.848,0.811,���k��,3.3,��
2018/03/27,11:30,0.858,1.434,0.891,1.674,1.132,0.485,0.848,0.812,�k��,2.6,��
2018/03/27,11:40,0.858,1.431,0.890,1.674,1.134,0.483,0.847,0.813,���k��,3.0,��
2018/03/27,11:50,0.858,1.434,0.889,1.673,1.131,0.482,0.848,0.814,���k��,3.1,��
2018/03/27,12:00,0.855,1.431,0.892,1.676,1.134,0.482,0.849,0.813,���k��,2.9,��
2018/03/27,12:10,0.857,1.434,0.890,1.675,1.134,0.482,0.848,0.813,���k��,3.2,��
2018/03/27,12:20,0.857,1.433,0.892,1.674,1.134,0.483,0.847,0.814,���k��,3.0,��
2018/03/27,12:30,0.858,1.435,0.892,1.673,1.133,0.483,0.850,0.813,��,3.0,��
2018/03/27,12:40,0.857,1.431,0.892,1.677,1.134,0.484,0.848,0.812,���k��,4.0,��
2018/03/27,12:50,0.856,1.434,0.892,1.673,1.137,0.485,0.849,0.815,��,2.6,��
2018/03/27,13:00,0.860,1.435,0.892,1.677,1.137,0.484,0.847,0.814,���k��,2.9,��
2018/03/27,13:10,0.859,1.434,0.891,1.676,1.136,0.485,0.849,0.812,���쓌,2.5,��
2018/03/27,13:20,0.859,1.433,0.893,1.676,1.135,0.484,0.847,0.814,��,2.5,��
2018/03/27,13:30,0.857,1.432,0.891,1.676,1.137,0.485,0.848,0.815,��,2.3,��
2018/03/27,13:40,0.860,1.432,0.891,1.679,1.137,0.484,0.849,0.813,���k��,2.2,��
2018/03/27,13:50,0.860,1.433,0.891,1.676,1.137,0.484,0.849,0.814,��,2.0,��
2018/03/27,14:00,0.859,1.433,0.891,1.676,1.137,0.485,0.849,0.814,���k��,2.3,��
2018/03/27,14:10,0.861,1.434,0.892,1.678,1.137,0.484,0.848,0.814,���k��,1.5,��
2018/03/27,14:20,0.860,1.433,0.894,1.677,1.137,0.484,0.848,0.815,���k��,1.9,��
2018/03/27,14:30,0.858,1.433,0.893,1.676,1.136,0.484,0.849,0.814,�k��,1.4,��
2018/03/27,14:40,0.860,1.436,0.892,1.678,1.136,0.484,0.851,0.812,��,1.7,��
2018/03/27,14:50,0.859,1.435,0.892,1.679,1.137,0.484,0.851,0.815,��,1.5,��
2018/03/27,15:00,0.861,1.435,0.892,1.677,1.137,0.484,0.850,0.815,��쓌,2.3,��
2018/03/27,15:10,0.860,1.435,0.891,1.677,1.137,0.485,0.850,0.813,��쓌,1.9,��
2018/03/27,15:20,0.859,1.433,0.890,1.672,1.135,0.486,0.849,0.814,��,3.0,��
2018/03/27,15:30,0.859,1.435,0.893,1.676,1.135,0.483,0.850,0.813,��쓌,3.2,��
2018/03/27,15:40,0.859,1.437,0.894,1.676,1.139,0.487,0.849,0.813,��쓌,3.5,��
2018/03/27,15:50,0.858,1.435,0.892,1.675,1.137,0.486,0.850,0.813,�쓌,2.0,��
2018/03/27,16:00,0.859,1.434,0.891,1.678,1.137,0.487,0.849,0.815,�쓌,3.2,��
2018/03/27,16:10,0.861,1.439,0.890,1.677,1.138,0.486,0.848,0.813,��쓌,4.4,��
2018/03/27,16:20,0.858,1.438,0.891,1.676,1.136,0.486,0.849,0.813,��쓌,4.1,��
2018/03/27,16:30,0.860,1.437,0.893,1.677,1.135,0.488,0.848,0.815,��쓌,5.3,��
2018/03/27,16:40,0.858,1.438,0.894,1.679,1.137,0.488,0.849,0.814,��쓌,7.5,��
2018/03/27,16:50,0.860,1.437,0.893,1.677,1.139,0.487,0.851,0.814,��쓌,10.5,��
2018/03/27,17:00,0.862,1.441,0.895,1.676,1.137,0.487,0.849,0.816,��쓌,10.7,��
2018/03/27,17:10,0.865,1.440,0.896,1.677,1.137,0.488,0.849,0.816,��쓌,9.9,��
2018/03/27,17:20,0.864,1.439,0.896,1.678,1.138,0.487,0.848,0.816,��,10.5,��
2018/03/27,17:30,0.864,1.440,0.896,1.677,1.136,0.487,0.852,0.818,��,9.0,��
2018/03/27,17:40,0.863,1.440,0.899,1.677,1.137,0.487,0.850,0.819,��,9.2,��
2018/03/27,17:50,0.862,1.440,0.898,1.676,1.136,0.488,0.852,0.817,��,9.5,��
2018/03/27,18:00,0.863,1.439,0.898,1.675,1.139,0.487,0.851,0.817,��,8.6,��
2018/03/27,18:10,0.863,1.440,0.898,1.678,1.137,0.488,0.852,0.817,��,8.6,��
2018/03/27,18:20,0.863,1.440,0.897,1.676,1.139,0.487,0.851,0.818,��,8.0,��
2018/03/27,18:30,0.862,1.443,0.895,1.676,1.140,0.487,0.850,0.817,��,7.5,��
2018/03/27,18:40,0.862,1.439,0.897,1.676,1.141,0.488,0.852,0.817,��,6.7,��
2018/03/27,18:50,0.862,1.439,0.898,1.677,1.139,0.487,0.853,0.816,��,7.8,��
2018/03/27,19:00,0.862,1.438,0.898,1.676,1.140,0.487,0.851,0.818,��,7.5,��
2018/03/27,19:10,0.862,1.441,0.898,1.678,1.140,0.487,0.851,0.817,��,9.2,��
2018/03/27,19:20,0.865,1.441,0.897,1.679,1.137,0.487,0.852,0.817,��,9.5,��
2018/03/27,19:30,0.863,1.440,0.898,1.674,1.138,0.488,0.853,0.816,��,7.9,��
2018/03/27,19:40,0.863,1.438,0.896,1.679,1.138,0.489,0.852,0.816,��,5.9,��
2018/03/27,19:50,0.862,1.440,0.896,1.677,1.140,0.486,0.852,0.817,��,6.8,��
2018/03/27,20:00,0.862,1.438,0.896,1.678,1.139,0.486,0.851,0.818,��,8.6,��
2018/03/27,20:10,0.861,1.439,0.896,1.676,1.138,0.486,0.850,0.816,��,7.4,��
2018/03/27,20:20,0.861,1.438,0.898,1.677,1.138,0.487,0.851,0.815,��,7.3,��
2018/03/27,20:30,0.862,1.437,0.896,1.674,1.137,0.488,0.851,0.817,��,6.9,��
2018/03/27,20:40,0.861,1.436,0.894,1.676,1.140,0.488,0.851,0.816,��,6.0,��
2018/03/27,20:50,0.861,1.438,0.894,1.676,1.138,0.487,0.850,0.815,��쐼,4.9,��
2018/03/27,21:00,0.861,1.438,0.896,1.676,1.138,0.486,0.850,0.815,�쐼,2.3,��
2018/03/27,21:10,0.864,1.435,0.895,1.675,1.138,0.486,0.851,0.816,�쐼,2.9,��
2018/03/27,21:20,0.863,1.439,0.896,1.676,1.137,0.487,0.851,0.816,�쐼,1.9,��
2018/03/27,21:30,0.860,1.436,0.895,1.673,1.139,0.486,0.850,0.816,���k��,1.2,��
2018/03/27,21:40,0.860,1.437,0.896,1.676,1.139,0.486,0.851,0.817,�k��,2.3,��
2018/03/27,21:50,0.860,1.435,0.895,1.676,1.137,0.485,0.849,0.815,�k�k��,2.9,��
2018/03/27,22:00,0.860,1.435,0.895,1.673,1.139,0.486,0.850,0.814,�k�k��,2.6,��
2018/03/27,22:10,0.861,1.436,0.895,1.676,1.136,0.485,0.850,0.814,�k�k��,1.5,��
2018/03/27,22:20,0.859,1.434,0.896,1.673,1.137,0.486,0.850,0.817,�k,2.0,��
2018/03/27,22:30,0.859,1.436,0.895,1.675,1.136,0.486,0.849,0.816,�k,2.0,��
2018/03/27,22:40,0.860,1.438,0.895,1.674,1.135,0.485,0.850,0.815,�k,4.4,��
2018/03/27,22:50,0.856,1.435,0.896,1.674,1.138,0.485,0.850,0.816,�k,4.3,��
2018/03/27,23:00,0.858,1.434,0.897,1.676,1.136,0.485,0.849,0.816,�k�k��,4.7,��
2018/03/27,23:10,0.858,1.433,0.895,1.674,1.138,0.486,0.849,0.814,�k�k��,4.7,��
2018/03/27,23:20,0.859,1.433,0.893,1.675,1.135,0.485,0.849,0.816,�k�k��,2.5,��
2018/03/27,23:30,0.858,1.434,0.895,1.674,1.138,0.485,0.847,0.814,�k�k��,1.9,��
2018/03/27,23:40,0.859,1.435,0.893,1.673,1.135,0.485,0.847,0.816,�k�k��,2.0,��
2018/03/27,23:50,0.858,1.433,0.893,1.673,1.136,0.486,0.849,0.816,�k�k��,2.6,��
